Tracking 18852 objects as of 23-Nov-2017
HD Live streaming from Space Station
objects crossing your sky now

FENGYUN 1C DEB

Track FENGYUN 1C DEB now!
10-day predictions


NORAD ID: 31682
Int'l Code: 1999-025CCQ
Perigee: 692.4 km
Apogee: 742.7 km
Inclination: 98.7 °
Period: 99.0 minutes
Semi major axis: 7088 km
RCS: 0.0091 m2 (small)
Launch date: May 10, 1999
Source: People's Republic of China (PRC)
Launch site: Taiyaun Space Center, China (TSC)

Note: This is SATELLITE DEBRIS
aabbcc
Your satellite tracking list
Your tracking list is empty




NASA's NSSDC Master Catalog

Two Line Element Set (TLE):
1 31682U 99025CCQ 17322.33168271  .00004322  00000-0  10134-2 0  9993
2 31682  98.7223   2.6133 0035502 184.3043 175.7852 14.54680867548210
Source of the keplerian elements: AFSPC